Weather WX

World > North America > United States > Ohio

Mount Carmel, Ohio Regional Weather

Lat: 39.10N, Lon: 84.3W
Wx Zone: OHZ077
Feedback

Mount Carmel, OH Regional Weather

Expires:201906251400;;054147
ASUS41 KCLE 251312
RWRCLE
OHIO REGIONAL WEATHER ROUNDUP
NATIONAL WEATHER SERVICE WILMINGTON, OH
900 AM EDT TUE JUN 25 2019

NOTE: "FAIR" INDICATES FEW OR NO CLOUDS BELOW 12,000 FEET WITH NO
SIGNIFICANT WEATHER AND/OR OBSTRUCTIONS TO VISIBILITY.


OHZ042-051>053-060>062-070>072-077>081-251400-
  SOUTHWEST OHIO
  
CITY           SKY/WX    TMP DP  RH WIND       PRES   REMARKS
CINC-COVINGTON FAIR      69  63  81 W8        30.00R                  
CINC-LUNKEN    FAIR      71  65  81 SW7       30.00R                  
HAMILTON       FAIR      71  64  78 W6        30.00R                  
DAYTON         FAIR      72  61  68 W7        29.98R                  
WRIGHT-PAT AFB FAIR      70  63  77 W8        29.97R                  
DAYTON GENERAL FAIR      71  62  73 W8        29.98R                  
WILMINGTON     FAIR      68  63  84 W12       29.98R                  
$$


SKY/WX - Weather  TMP - Temperature  DP - Dew Point  RH - Relative Humidity
WIND - Wind Direction/Speed PRES - Barometric Pressure VSB - Visibility
WCI - Wind Chill Index E13G22 Wind - East Wind 13 mph/Gusts of 22 mph